EW5544 Weather Reports


time (UTC)temp
F
wind
direction
speed
knots
gust
knots
rain 1hr
in
rain 24hr
in
rain mn
in
humidity
%
barometer
mb
20260507230109 57 340 1.7 3.5 0.00 0.05 0.00 78 1011.4
20260507224553 56 360 1.7 2.6 0.00 0.05 0.00 79 1011.5
20260507223147 56 360 0.9 2.6 0.00 0.05 0.00 79 1011.7
20260507221551 57 355 0.9 2.6 0.00 0.05 0.00 77 1011.7
20260507220017 58 360 0.9 2.6 0.00 0.05 0.00 75 1011.5
20260507214516 59 327 0.9 2.6 0.00 0.05 0.00 73 1011.5
20260507213016 59 344 0.9 4.3 0.00 0.05 0.00 73 1011.5
20260507211616 58 360 0.9 1.7 0.00 0.05 0.00 74 1011.6
20260507210018 59 360 0.0 1.7 0.00 0.05 0.00 71 1011.6
20260507204518 59 360 0.9 2.6 0.00 0.05 0.00 70 1011.6
20260507203029 59 360 0.0 0.9 0.00 0.05 0.00 73 1011.6
20260507201622 59 360 0.9 2.6 0.00 0.05 0.00 71 1011.7
20260507200033 60 360 0.0 0.9 0.00 0.05 0.00 73 1011.7
20260507194517 59 360 0.9 1.7 0.00 0.05 0.00 74 1011.4
20260507193046 59 360 0.9 1.7 0.00 0.05 0.00 75 1011.4
20260507191539 60 360 0.0 0.9 0.00 0.05 0.00 73 1011.4
20260507190040 61 360 0.9 2.6 0.00 0.05 0.00 73 1011.2
20260507184538 61 360 0.9 1.7 0.00 0.05 0.00 75 1011.3
20260507183042 61 355 0.9 1.7 0.00 0.05 0.00 73 1011.4
20260507181541 63 355 0.9 1.7 0.00 0.05 0.00 71 1011.4
20260507180041 65 329 0.0 2.6 0.00 0.05 0.00 67 1011.3
20260507174551 66 338 0.9 3.5 0.00 0.05 0.00 65 1011.2
20260507173041 67 304 0.0 0.0 0.00 0.05 0.00 64 1011.2
20260507171547 68 294 0.0 0.0 0.00 0.05 0.00 63 1011.0
20260507170045 68 288 0.0 0.0 0.00 0.05 0.00 64 1011.1
20260507164540 66 323 0.0 1.7 0.00 0.05 0.00 68 1011.0
20260507163035 66 323 0.0 1.7 0.00 0.05 0.00 65 1011.0
20260507161540 65 348 0.0 4.3 0.00 0.05 0.00 63 1010.9
20260507160037 0 0.0 0.0 0.00 0.05 0.00 1011.1
20260507154530 0 0.0 0.0 0.00 0.05 0.00 1011.1
20260507153028 0 0.0 0.0 0.00 0.05 0.00 1011.2
20260507151525 0 0.0 0.0 0.00 0.05 0.00 1011.1
20260507150019 0 0.0 0.0 0.00 0.05 0.00 1011.1
20260507144525 70 83 2.6 6.1 0.00 0.05 0.00 52 1011.2
20260507143013 70 109 0.9 5.2 0.00 0.05 0.00 55 1011.5
20260507141512 71 162 0.0 0.0 0.00 0.05 0.00 54 1011.6
20260507140011 72 199 0.0 0.0 0.00 0.05 0.00 53 1011.8
20260507134510 69 207 0.0 0.0 0.00 0.05 0.00 59 1012.1
20260507133010 68 136 0.0 0.0 0.00 0.05 0.00 57 1012.2
20260507131521 68 163 2.6 7.8 0.00 0.05 0.00 59 1012.3
20260507130009 70 138 1.7 7.8 0.00 0.05 0.00 56 1012.4
20260507124508 70 180 2.6 8.7 0.00 0.05 0.00 56 1012.4
20260507123012 72 173 0.9 7.8 0.00 0.05 0.00 57 1012.3
20260507121510 71 186 0.9 4.3 0.00 0.05 0.00 52 1012.3
20260507120008 70 105 0.9 3.5 0.00 0.05 0.00 53 1012.3
20260507114507 70 273 0.0 0.0 0.00 0.05 0.00 60 1012.4
20260507113004 70 248 0.9 3.5 0.00 0.05 0.00 56 1012.5
20260507111507 70 140 0.9 5.2 0.00 0.05 0.00 57 1012.5
20260507110059 69 187 1.7 5.2 0.00 0.05 0.00 59 1012.7
20260507104556 67 147 3.5 7.8 0.00 0.05 0.00 65 1012.9
20260507103052 67 159 0.9 3.5 0.00 0.05 0.00 64 1012.9
20260507101558 67 169 1.7 6.1 0.00 0.05 0.00 65 1013.1
20260507100054 0 0.0 0.0 0.00 0.05 0.00 1013.3
20260507094541 65 119 0.0 0.0 0.00 0.05 0.00 70 1013.2
20260507093039 65 192 0.0 0.0 0.00 0.05 0.00 73 1013.2
20260507091538 64 148 0.0 7.8 0.00 0.05 0.00 72 1013.4
20260507090036 65 155 0.0 7.0 0.00 0.05 0.00 73 1013.3
20260507084541 64 183 1.7 6.1 0.00 0.05 0.00 78 1013.3
20260507083046 63 183 1.7 5.2 0.00 0.05 0.00 76 1013.4
20260507081530 62 175 1.7 6.1 0.00 0.05 0.00 78 1013.4
20260507080028 62 154 1.7 6.1 0.00 0.05 0.00 81 1013.4
20260507074525 60 168 1.7 6.1 0.00 0.05 0.00 82 1013.4
20260507073022 61 135 2.6 7.0 0.00 0.05 0.00 83 1013.3
20260507071518 59 158 0.9 5.2 0.00 0.05 0.00 85 1013.2
20260507070016 59 198 2.6 5.2 0.00 0.05 0.00 86 1013.3
20260507064511 59 172 1.7 4.3 0.00 0.06 0.00 90 1013.2
20260507063011 57 169 0.9 2.6 0.00 0.06 0.00 91 1013.2
20260507061507 57 202 0.9 3.5 0.00 0.06 0.00 92 1013.2
20260507060014 56 159 1.7 5.2 0.00 0.06 0.00 92 1013.2
20260507054502 55 183 1.7 3.5 0.00 0.06 0.06 93 1013.0
20260507053100 55 74 4.3 7.0 0.00 0.06 0.06 93 1012.8
20260507051605 54 146 0.9 4.3 0.00 0.06 0.06 93 1012.9
20260507050100 54 111 0.9 3.5 0.00 0.06 0.06 93 1012.8
20260507044558 54 130 0.0 3.5 0.00 0.06 0.06 93 1012.7
20260507043103 54 96 1.7 3.5 0.00 0.06 0.06 93 1012.6
20260507041558 53 113 1.7 4.3 0.00 0.06 0.06 93 1012.5
20260507040059 53 120 2.6 7.0 0.00 0.06 0.06 93 1012.3
20260507034557 53 148 0.9 2.6 0.00 0.06 0.06 92 1012.2
20260507033056 53 136 2.6 8.7 0.00 0.06 0.06 92 1012.2
20260507031554 54 112 1.7 8.7 0.00 0.06 0.06 92 1012.3
20260507030053 54 164 1.7 8.7 0.00 0.06 0.06 92 1012.2
20260507024603 54 111 4.3 7.0 0.04 0.06 0.06 92 1012.1
20260507023049 54 93 4.3 8.7 0.04 0.06 0.06 92 1012.1
20260507021548 55 159 3.5 11.3 0.04 0.06 0.06 92 1012.1
20260507020103 55 161 2.6 7.8 0.05 0.06 0.06 92 1012.3
20260507014553 55 144 3.5 7.8 0.01 0.02 0.02 91 1012.1
20260507013047 55 175 2.6 6.1 0.01 0.02 0.02 91 1012.1
20260507011543 55 130 1.7 4.3 0.01 0.02 0.02 90 1012.1
20260507010041 55 123 2.6 7.8 0.00 0.01 0.01 89 1012.0
20260507004544 56 171 3.5 8.7 0.00 0.01 0.01 89 1011.9
20260507003042 56 152 3.5 7.0 0.00 0.01 0.01 88 1012.0
20260507001542 56 129 2.6 9.6 0.00 0.01 0.01 88 1012.0
20260507000039 56 194 3.5 7.8 0.00 0.01 0.01 87 1012.1
20260506234540 57 94 4.3 11.3 0.00 0.01 0.01 87 1012.0
20260506233039 57 193 1.7 7.8 0.00 0.01 0.01 88 1012.2
20260506231548 57 156 4.3 7.8 0.00 0.01 0.01 88 1012.2